• Em Portugal
  • Lista de países
  • Para 7 dias
  • Temperatura da água
  • Mapas de satélite
  • Mapa do tempo
  • Widgets de tempo
  • user-avatar
    Iniciar Sessão

    Previsão horária em Piertanie

    Hoje, 23 Outubro, Terça-feira

    Tempo Temperatura Precipitação Vento Pressão Humidade
    00:00 +4°C° 0 mm 3 m/s 750 mmHg 90%
    01:00 +4°C° 0 mm 3 m/s 750 mmHg 90%
    02:00 +3°C° 0 mm 3 m/s 750 mmHg 92%
    03:00 +3°C° 0 mm 3 m/s 749 mmHg 92%
    04:00 +3°C° 0 mm 4 m/s 749 mmHg 91%
    05:00 +3°C° 0 mm 4 m/s 748 mmHg 91%
    06:00 +3°C° 0 mm 5 m/s 747 mmHg 89%
    07:00 +3°C° 0 mm 5 m/s 746 mmHg 87%
    08:00 +3°C° 0 mm 6 m/s 745 mmHg 85%
    09:00 +4°C° 0.3 mm 7 m/s 744 mmHg 82%
    10:00 +4°C° 0.3 mm 7 m/s 742 mmHg 79%
    11:00 +4°C° 0.3 mm 8 m/s 741 mmHg 76%
    12:00 +3°C° 1.1 mm 9 m/s 739 mmHg 77%
    13:00 +3°C° 1.1 mm 9 m/s 737 mmHg 78%
    14:00 +3°C° 1.1 mm 9 m/s 736 mmHg 79%
    15:00 +3°C° 1.1 mm 9 m/s 734 mmHg 80%
    16:00 +5°C° 1.1 mm 9 m/s 733 mmHg 82%
    17:00 +5°C° 1.1 mm 9 m/s 731 mmHg 83%
    18:00 +5°C° 0.5 mm 8 m/s 730 mmHg 83%
    19:00 +6°C° 0.5 mm 7 m/s 729 mmHg 82%
    20:00 +7°C° 0.5 mm 6 m/s 728 mmHg 82%
    21:00 +7°C° 0.3 mm 6 m/s 728 mmHg 83%
    22:00 +5°C° 0.3 mm 6 m/s 728 mmHg 83%
    23:00 +5°C° 0.3 mm 6 m/s 728 mmHg 84%

    Amanhã, 24 Outubro, Quarta-feira

    Tempo Temperatura Precipitação Vento Pressão Humidade
    00:00 +6°C° 0.1 mm 5 m/s 728 mmHg 84%
    01:00 +5°C° 0.1 mm 5 m/s 728 mmHg 85%
    02:00 +4°C° 0.1 mm 4 m/s 728 mmHg 85%
    03:00 +4°C° 0 mm 4 m/s 728 mmHg 85%
    04:00 +4°C° 0 mm 4 m/s 728 mmHg 85%
    05:00 +3°C° 0 mm 4 m/s 728 mmHg 84%
    06:00 +2°C° 0 mm 5 m/s 728 mmHg 82%
    07:00 +2°C° 0 mm 6 m/s 728 mmHg 79%
    08:00 +2°C° 0 mm 7 m/s 728 mmHg 76%
    09:00 +2°C° 0.7 mm 8 m/s 728 mmHg 76%
    10:00 +2°C° 0.7 mm 10 m/s 728 mmHg 75%
    11:00 +3°C° 0.7 mm 11 m/s 728 mmHg 74%
    12:00 +3°C° 1 mm 11 m/s 729 mmHg 73%
    13:00 +4°C° 1 mm 11 m/s 729 mmHg 73%
    14:00 +4°C° 1 mm 11 m/s 729 mmHg 73%
    15:00 +4°C° 0.6 mm 11 m/s 730 mmHg 72%
    16:00 +4°C° 0.6 mm 11 m/s 731 mmHg 72%
    17:00 +4°C° 0.6 mm 11 m/s 732 mmHg 71%
    18:00 +3°C° 0.2 mm 10 m/s 733 mmHg 72%
    19:00 +3°C° 0.2 mm 10 m/s 735 mmHg 72%
    20:00 +3°C° 0.2 mm 10 m/s 736 mmHg 73%
    21:00 +3°C° 0 mm 9 m/s 737 mmHg 73%
    22:00 +2°C° 0 mm 8 m/s 737 mmHg 73%
    23:00 +2°C° 0 mm 8 m/s 738 mmHg 73%

    Depois de amanhã, 25 Outubro, Quinta-feira

    Tempo Temperatura Precipitação Vento Pressão Humidade
    00:00 +3°C° 0 mm 7 m/s 738 mmHg 75%
    01:00 +2°C° 0 mm 6 m/s 739 mmHg 77%
    02:00 +2°C° 0 mm 6 m/s 739 mmHg 79%
    03:00 +2°C° 0 mm 5 m/s 739 mmHg 81%
    04:00 +2°C° 0 mm 5 m/s 739 mmHg 83%
    05:00 +3°C° 0 mm 4 m/s 739 mmHg 86%
    06:00 +1°C° 0 mm 4 m/s 739 mmHg 85%
    07:00 +1°C° 0 mm 4 m/s 739 mmHg 85%
    08:00 +1°C° 0 mm 4 m/s 738 mmHg 85%
    09:00 +3°C° 0.1 mm 4 m/s 738 mmHg 82%
    10:00 +4°C° 0.1 mm 4 m/s 737 mmHg 78%
    11:00 +4°C° 0.1 mm 4 m/s 736 mmHg 74%
    12:00 +4°C° 1.1 mm 4 m/s 735 mmHg 78%
    13:00 +4°C° 1.1 mm 4 m/s 735 mmHg 81%
    14:00 +4°C° 1.1 mm 4 m/s 734 mmHg 85%
    15:00 +4°C° 0.4 mm 4 m/s 734 mmHg 85%
    16:00 +4°C° 0.4 mm 3 m/s 734 mmHg 86%
    17:00 +4°C° 0.4 mm 3 m/s 733 mmHg 86%
    18:00 +4°C° 0 mm 3 m/s 734 mmHg 88%
    19:00 +4°C° 0 mm 2 m/s 734 mmHg 90%
    20:00 +4°C° 0 mm 2 m/s 735 mmHg 92%
    21:00 +4°C° 0 mm 2 m/s 735 mmHg 93%
    22:00 +4°C° 0 mm 2 m/s 736 mmHg 93%
    23:00 +4°C° 0 mm 2 m/s 736 mmHg 94%

    26 Outubro, Sexta-feira

    Tempo Temperatura Precipitação Vento Pressão Humidade
    00:00 +3°C° 0.1 mm 3 m/s 736 mmHg 92%
    01:00 +3°C° 0.1 mm 4 m/s 737 mmHg 91%
    02:00 +4°C° 0.1 mm 4 m/s 737 mmHg 90%
    03:00 +3°C° 0 mm 5 m/s 737 mmHg 90%
    04:00 +3°C° 0 mm 5 m/s 738 mmHg 89%
    05:00 +2°C° 0 mm 5 m/s 738 mmHg 88%
    06:00 +2°C° 0 mm 5 m/s 738 mmHg 89%
    07:00 +3°C° 0 mm 4 m/s 739 mmHg 90%
    08:00 +3°C° 0 mm 4 m/s 739 mmHg 92%
    09:00 +4°C° 0 mm 4 m/s 740 mmHg 85%
    10:00 +5°C° 0 mm 4 m/s 740 mmHg 79%
    11:00 +6°C° 0 mm 4 m/s 741 mmHg 72%
    12:00 +7°C° 0 mm 4 m/s 741 mmHg 70%
    13:00 +7°C° 0 mm 4 m/s 741 mmHg 67%
    14:00 +8°C° 0 mm 4 m/s 741 mmHg 64%
    15:00 +7°C° 0.1 mm 4 m/s 741 mmHg 70%
    16:00 +8°C° 0.1 mm 3 m/s 741 mmHg 75%
    17:00 +7°C° 0.1 mm 3 m/s 740 mmHg 81%
    18:00 +7°C° 0 mm 3 m/s 740 mmHg 81%
    19:00 +5°C° 0 mm 4 m/s 740 mmHg 82%
    20:00 +5°C° 0 mm 4 m/s 740 mmHg 83%
    21:00 +5°C° 0.1 mm 5 m/s 739 mmHg 83%
    22:00 +6°C° 0.1 mm 5 m/s 739 mmHg 83%
    23:00 +5°C° 0.1 mm 6 m/s 738 mmHg 83%

    27 Outubro, Sábado

    Tempo Temperatura Precipitação Vento Pressão Humidade
    00:00 +5°C° 0.1 mm 6 m/s 738 mmHg 84%
    01:00 +7°C° 0.1 mm 6 m/s 738 mmHg 86%
    02:00 +7°C° 0.1 mm 6 m/s 737 mmHg 87%
    03:00 +7°C° 0.1 mm 6 m/s 737 mmHg 86%
    04:00 +6°C° 0.1 mm 7 m/s 736 mmHg 85%
    05:00 +6°C° 0.1 mm 7 m/s 736 mmHg 83%
    06:00 +6°C° 0.1 mm 7 m/s 735 mmHg 83%
    07:00 +6°C° 0.1 mm 7 m/s 735 mmHg 82%
    08:00 +5°C° 0.1 mm 7 m/s 735 mmHg 81%
    09:00 +6°C° 0.1 mm 8 m/s 735 mmHg 76%
    10:00 +6°C° 0.1 mm 8 m/s 735 mmHg 71%
    11:00 +7°C° 0.1 mm 9 m/s 736 mmHg 66%
    12:00 +7°C° 0.1 mm 9 m/s 736 mmHg 64%
    13:00 +7°C° 0.1 mm 9 m/s 736 mmHg 62%
    14:00 +7°C° 0.1 mm 9 m/s 736 mmHg 60%
    15:00 +6°C° 0 mm 8 m/s 737 mmHg 62%
    16:00 +6°C° 0 mm 8 m/s 737 mmHg 65%
    17:00 +5°C° 0 mm 7 m/s 738 mmHg 67%
    18:00 +4°C° 0 mm 6 m/s 739 mmHg 71%
    19:00 +5°C° 0 mm 4 m/s 740 mmHg 75%
    20:00 +4°C° 0 mm 3 m/s 740 mmHg 78%
    21:00 +3°C° 0 mm 3 m/s 741 mmHg 81%
    22:00 +3°C° 0 mm 2 m/s 742 mmHg 83%
    23:00 +3°C° 0 mm 2 m/s 743 mmHg 85%

    28 Outubro, Domingo

    Tempo Temperatura Precipitação Vento Pressão Humidade
    00:00 +3°C° 0 mm 2 m/s 743 mmHg 85%
    01:00 +3°C° 0 mm 1 m/s 744 mmHg 84%
    02:00 +3°C° 0 mm 1 m/s 744 mmHg 84%
    03:00 +3°C° 0 mm 1 m/s 744 mmHg 84%
    04:00 +3°C° 0 mm 1 m/s 745 mmHg 85%
    05:00 +3°C° 0 mm 1 m/s 745 mmHg 86%
    06:00 +2°C° 0 mm 2 m/s 746 mmHg 86%
    07:00 +2°C° 0 mm 2 m/s 746 mmHg 86%
    08:00 +1°C° 0 mm 2 m/s 746 mmHg 86%
    09:00 +2°C° 0 mm 2 m/s 747 mmHg 81%
    10:00 +3°C° 0 mm 2 m/s 747 mmHg 77%
    11:00 +3°C° 0 mm 3 m/s 748 mmHg 72%
    12:00 +3°C° 0 mm 3 m/s 748 mmHg 70%
    13:00 +4°C° 0 mm 3 m/s 748 mmHg 68%
    14:00 +4°C° 0 mm 3 m/s 748 mmHg 67%
    15:00 +4°C° 0 mm 3 m/s 748 mmHg 69%
    16:00 +3°C° 0 mm 3 m/s 748 mmHg 70%
    17:00 +3°C° 0 mm 3 m/s 748 mmHg 72%
    18:00 +3°C° 0.1 mm 4 m/s 748 mmHg 72%
    19:00 +1°C° 0.1 mm 4 m/s 748 mmHg 71%
    20:00 +1°C° 0.1 mm 4 m/s 748 mmHg 71%
    21:00 +1°C° 0.2 mm 5 m/s 748 mmHg 70%
    22:00 +1°C° 0.2 mm 5 m/s 748 mmHg 70%
    23:00 -1°C° 0.2 mm 6 m/s 748 mmHg 70%

    29 Outubro, Segunda-feira

    Tempo Temperatura Precipitação Vento Pressão Humidade
    00:00 -1°C° 1 mm 6 m/s 747 mmHg 75%
    01:00 -1°C° 1 mm 7 m/s 747 mmHg 79%
    02:00 -2°C° 1 mm 8 m/s 746 mmHg 83%
    03:00 -2°C° 1.8 mm 8 m/s 746 mmHg 86%
    04:00 -2°C° 1.8 mm 8 m/s 745 mmHg 88%
    05:00 -4°C° 1.8 mm 9 m/s 744 mmHg 91%
    06:00 -4°C° 1.7 mm 9 m/s 744 mmHg 91%
    07:00 -4°C° 1.7 mm 9 m/s 743 mmHg 92%
    08:00 -4°C° 1.7 mm 9 m/s 743 mmHg 92%
    09:00 -3°C° 1.7 mm 9 m/s 742 mmHg 93%
    10:00 -2°C° 1.7 mm 8 m/s 742 mmHg 94%
    11:00 -2°C° 1.7 mm 8 m/s 741 mmHg 95%
    12:00 -2°C° 0.5 mm 7 m/s 741 mmHg 96%
    13:00 -2°C° 0.5 mm 7 m/s 740 mmHg 97%
    14:00 -1°C° 0.5 mm 6 m/s 739 mmHg 97%
    15:00 -1°C° 0.4 mm 6 m/s 739 mmHg 98%
    16:00 -1°C° 0.4 mm 6 m/s 738 mmHg 98%
    17:00 +1°C° 0.4 mm 6 m/s 738 mmHg 99%
    18:00 +1°C° 0.6 mm 6 m/s 737 mmHg 99%
    19:00 +2°C° 0.6 mm 5 m/s 737 mmHg 99%
    20:00 +2°C° 0.6 mm 5 m/s 737 mmHg 99%
    21:00 +3°C° 0.5 mm 5 m/s 736 mmHg 99%
    22:00 +4°C° 0.5 mm 4 m/s 736 mmHg 99%
    23:00 +5°C° 0.5 mm 4 m/s 736 mmHg 99%
    Mostrar mais